| time (UTC) | temp F | wind direction | speed knots | gust knots | rain 1hr in | rain 24hr in | rain mn in | humidity % | barometer mb |
| 20260831064001 | 60 | 165 | 2.6 | 5.2 | 0.11 | 0.00 | 0.28 | 94 | 1014.0 |
| 20260831063500 | 60 | 184 | 2.6 | 5.2 | 0.09 | 0.00 | 0.26 | 94 | 1013.9 |
| 20260831063000 | 60 | 117 | 1.7 | 5.2 | 0.08 | 0.00 | 0.24 | 94 | 1013.9 |
| 20260831062501 | 61 | 62 | 2.6 | 4.3 | 0.07 | 0.00 | 0.24 | 94 | 1013.9 |
| 20260831062001 | 61 | 105 | 1.7 | 4.3 | 0.06 | 0.00 | 0.23 | 94 | 1014.1 |
| 20260831061500 | 61 | 165 | 1.7 | 4.3 | 0.05 | 0.00 | 0.21 | 93 | 1014.2 |
| 20260831061001 | 61 | 153 | 2.6 | 6.1 | 0.03 | 0.00 | 0.20 | 93 | 1014.2 |
| 20260831060500 | 61 | 51 | 2.6 | 4.3 | 0.01 | 0.00 | 0.17 | 93 | 1014.2 |
| 20260831060001 | 61 | 281 | 2.6 | 6.1 | 0.00 | 0.00 | 0.17 | 93 | 1014.0 |
| 20260831055501 | 61 | 141 | 1.7 | 5.2 | 0.07 | 0.00 | 0.16 | 93 | 1014.0 |
| 20260831055000 | 61 | 188 | 2.6 | 5.2 | 0.05 | 0.00 | 0.13 | 92 | 1014.2 |
| 20260831054501 | 61 | 171 | 1.7 | 5.2 | 0.02 | 0.00 | 0.11 | 92 | 1014.0 |
| 20260831054000 | 61 | 193 | 2.6 | 6.1 | 0.00 | 0.00 | 0.09 | 92 | 1013.8 |
| 20260831053501 | 60 | 192 | 1.7 | 3.5 | 0.00 | 0.00 | 0.09 | 92 | 1013.6 |
| 20260831053001 | 60 | 123 | 1.7 | 4.3 | 0.00 | 0.00 | 0.09 | 93 | 1013.4 |
| 20260831052501 | 60 | 140 | 1.7 | 4.3 | 0.00 | 0.00 | 0.09 | 92 | 1013.3 |
| 20260831052000 | 60 | 269 | 1.7 | 4.3 | 0.00 | 0.00 | 0.09 | 91 | 1013.1 |
| 20260831051501 | 60 | 176 | 1.7 | 5.2 | 0.00 | 0.00 | 0.09 | 92 | 1013.0 |
| 20260831051001 | 60 | 23 | 1.7 | 4.3 | 0.00 | 0.00 | 0.09 | 91 | 1013.0 |
| 20260831050500 | 60 | 188 | 1.7 | 3.5 | 0.00 | 0.00 | 0.09 | 91 | 1012.8 |
| 20260831050001 | 60 | 159 | 1.7 | 3.5 | 0.00 | 0.00 | 0.09 | 91 | 1013.0 |
| 20260831045500 | 60 | 164 | 0.9 | 3.5 | 0.08 | 0.00 | 0.09 | 91 | 1013.1 |
| 20260831045000 | 61 | 157 | 1.7 | 3.5 | 0.08 | 0.00 | 0.09 | 91 | 1013.3 |
| 20260831044500 | 61 | 87 | 1.7 | 4.3 | 0.07 | 0.00 | 0.08 | 90 | 1013.4 |
| 20260831044001 | 61 | 177 | 1.7 | 5.2 | 0.07 | 0.00 | 0.08 | 90 | 1013.5 |
| 20260831043500 | 61 | 172 | 2.6 | 6.1 | 0.07 | 0.00 | 0.08 | 89 | 1013.6 |
| 20260831043001 | 61 | 171 | 2.6 | 4.3 | 0.07 | 0.00 | 0.08 | 89 | 1013.7 |
| 20260831042500 | 61 | 315 | 0.9 | 3.5 | 0.07 | 0.00 | 0.08 | 89 | 1013.7 |
| 20260831042001 | 61 | 169 | 1.7 | 3.5 | 0.06 | 0.00 | 0.07 | 88 | 1013.7 |
| 20260831041500 | 62 | 159 | 2.6 | 8.7 | 0.06 | 0.00 | 0.06 | 87 | 1013.7 |
| 20260831041000 | 62 | 79 | 2.6 | 8.7 | 0.05 | 0.00 | 0.06 | 87 | 1013.9 |
| 20260831040501 | 63 | 160 | 2.6 | 7.8 | 0.03 | 0.00 | 0.04 | 84 | 1013.9 |
| 20260831040001 | 63 | 273 | 1.7 | 3.5 | 0.00 | 0.00 | 0.01 | 80 | 1013.6 |
| 20260831035500 | 63 | 255 | 0.9 | 1.7 | 0.00 | 0.00 | 0.00 | 79 | 1013.1 |
| 20260831035001 | 63 | 249 | 1.7 | 3.5 | 0.00 | 0.00 | 0.00 | 79 | 1012.7 |
| 20260831034500 | 63 | 170 | 1.7 | 4.3 | 0.00 | 0.00 | 0.00 | 79 | 1012.5 |
| 20260831034001 | 62 | 172 | 1.7 | 4.3 | 0.00 | 0.00 | 0.00 | 80 | 1012.3 |
| 20260831033500 | 62 | 200 | 0.9 | 1.7 | 0.00 | 0.00 | 0.00 | 80 | 1012.2 |
| 20260831033001 | 62 | 333 | 0.9 | 1.7 | 0.00 | 0.00 | 0.00 | 80 | 1012.3 |
| 20260831032500 | 62 | 37 | 0.9 | 1.7 | 0.00 | 0.00 | 0.00 | 80 | 1012.4 |
| 20260831032000 | 62 | 198 | 0.9 | 2.6 | 0.00 | 0.00 | 0.00 | 80 | 1012.4 |
| 20260831031500 | 62 | 6 | 0.9 | 0.9 | 0.00 | 0.00 | 0.00 | 80 | 1012.3 |
| 20260831031000 | 62 | 135 | 0.9 | 2.6 | 0.00 | 0.00 | 0.00 | 80 | 1012.2 |
| 20260831030500 | 62 | 339 | 0.9 | 1.7 | 0.00 | 0.00 | 0.00 | 79 | 1012.3 |
| 20260831030001 | 62 | 238 | 0.9 | 1.7 | 0.00 | 0.00 | 0.00 | 80 | 1012.3 |
| 20260831025500 | 62 | 246 | 0.9 | 3.5 | 0.00 | 0.00 | 0.00 | 80 | 1012.5 |
| 20260831025000 | 62 | 234 | 0.9 | 3.5 | 0.00 | 0.00 | 0.00 | 80 | 1012.7 |
| 20260831024501 | 61 | 240 | 0.9 | 2.6 | 0.00 | 0.00 | 0.00 | 81 | 1012.8 |
| 20260831024000 | 61 | 231 | 1.7 | 4.3 | 0.00 | 0.00 | 0.00 | 81 | 1012.9 |
| 20260831023500 | 60 | 304 | 0.9 | 2.6 | 0.00 | 0.00 | 0.00 | 82 | 1012.9 |
| 20260831023001 | 60 | 278 | 0.9 | 3.5 | 0.00 | 0.00 | 0.00 | 82 | 1012.9 |
| 20260831022501 | 60 | 93 | 0.9 | 1.7 | 0.00 | 0.00 | 0.00 | 83 | 1013.0 |
| 20260831022000 | 59 | 43 | 0.9 | 2.6 | 0.00 | 0.00 | 0.00 | 84 | 1012.9 |
| 20260831021500 | 59 | 267 | 0.9 | 1.7 | 0.00 | 0.00 | 0.00 | 85 | 1013.0 |
| 20260831021000 | 59 | 117 | 0.9 | 0.9 | 0.00 | 0.00 | 0.00 | 84 | 1013.0 |
| 20260831020501 | 59 | 315 | 0.0 | 0.9 | 0.00 | 0.00 | 0.00 | 84 | 1012.9 |
| 20260831020001 | 59 | 230 | 0.9 | 1.7 | 0.00 | 0.00 | 0.00 | 85 | 1012.9 |
| 20260831015500 | 58 | 282 | 0.9 | 2.6 | 0.00 | 0.00 | 0.00 | 86 | 1013.2 |
| 20260831015000 | 57 | 198 | 0.9 | 2.6 | 0.00 | 0.00 | 0.00 | 89 | 1013.3 |
| 20260831014500 | 57 | 224 | 0.0 | 0.0 | 0.00 | 0.00 | 0.00 | 89 | 1013.3 |
| 20260831014001 | 57 | 205 | 0.9 | 0.9 | 0.00 | 0.00 | 0.00 | 89 | 1013.3 |
| 20260831013500 | 57 | 49 | 0.9 | 1.7 | 0.00 | 0.00 | 0.00 | 89 | 1013.4 |
| 20260831013001 | 57 | 280 | 0.9 | 1.7 | 0.00 | 0.00 | 0.00 | 89 | 1013.5 |
| 20260831012501 | 57 | 221 | 0.0 | 0.9 | 0.00 | 0.00 | 0.00 | 89 | 1013.5 |
| 20260831012000 | 57 | 130 | 0.0 | 0.0 | 0.00 | 0.00 | 0.00 | 89 | 1013.5 |
| 20260831011501 | 57 | 133 | 0.9 | 0.9 | 0.00 | 0.00 | 0.00 | 88 | 1013.5 |
| 20260831011001 | 57 | 142 | 0.0 | 0.0 | 0.00 | 0.00 | 0.00 | 88 | 1013.5 |
| 20260831010501 | 57 | 242 | 0.0 | 0.9 | 0.00 | 0.00 | 0.00 | 87 | 1013.7 |
| 20260831010001 | 58 | 310 | 0.0 | 0.0 | 0.00 | 0.00 | 0.00 | 87 | 1013.7 |
| 20260831005500 | 58 | 309 | 0.0 | 0.0 | 0.00 | 0.00 | 0.00 | 87 | 1013.7 |
| 20260831005001 | 58 | 142 | 0.0 | 0.9 | 0.00 | 0.00 | 0.00 | 87 | 1013.8 |
| 20260831004500 | 58 | 300 | 0.0 | 0.0 | 0.00 | 0.00 | 0.00 | 87 | 1013.9 |
| 20260831004001 | 58 | 315 | 0.0 | 0.9 | 0.00 | 0.00 | 0.00 | 87 | 1013.9 |
| 20260831003500 | 58 | 217 | 0.0 | 0.0 | 0.00 | 0.00 | 0.00 | 87 | 1014.0 |
| 20260831003001 | 58 | 299 | 0.9 | 1.7 | 0.00 | 0.00 | 0.00 | 88 | 1014.0 |
| 20260831002501 | 58 | 117 | 0.9 | 0.9 | 0.00 | 0.00 | 0.00 | 88 | 1014.1 |
| 20260831002000 | 59 | 125 | 0.0 | 0.9 | 0.00 | 0.00 | 0.00 | 88 | 1014.2 |
| 20260831001500 | 59 | 311 | 0.9 | 0.9 | 0.00 | 0.00 | 0.00 | 89 | 1014.2 |
| 20260831001000 | 59 | 135 | 0.9 | 0.9 | 0.00 | 0.00 | 0.00 | 88 | 1014.2 |
| 20260831000501 | 59 | 164 | 0.0 | 0.9 | 0.00 | 0.00 | 0.00 | 89 | 1014.1 |
| 20260831000000 | 59 | 309 | 0.9 | 1.7 | 0.00 | 0.00 | 0.00 | 89 | 1014.2 |
| 20260830235500 | 59 | 230 | 0.0 | 0.0 | 0.00 | 0.00 | 0.00 | 89 | 1014.3 |
| 20260830235000 | 58 | 117 | 0.0 | 0.0 | 0.00 | 0.00 | 0.00 | 90 | 1014.4 |
| 20260830234500 | 58 | 205 | 0.9 | 0.9 | 0.00 | 0.00 | 0.00 | 90 | 1014.4 |
| 20260830234000 | 58 | 142 | 0.9 | 0.9 | 0.00 | 0.00 | 0.00 | 90 | 1014.4 |
| 20260830233501 | 58 | 154 | 0.0 | 0.0 | 0.00 | 0.00 | 0.00 | 90 | 1014.4 |
| 20260830233000 | 58 | 19 | 0.0 | 0.0 | 0.00 | 0.00 | 0.00 | 89 | 1014.4 |
| 20260830232500 | 58 | 130 | 0.0 | 0.9 | 0.00 | 0.00 | 0.00 | 89 | 1014.4 |
| 20260830232001 | 58 | 315 | 0.9 | 0.9 | 0.00 | 0.00 | 0.00 | 89 | 1014.5 |
| 20260830231501 | 59 | 160 | 0.0 | 0.0 | 0.00 | 0.00 | 0.00 | 88 | 1014.6 |
| 20260830231001 | 59 | 212 | 0.0 | 0.0 | 0.00 | 0.00 | 0.00 | 88 | 1014.7 |
| 20260830230500 | 59 | 135 | 0.0 | 0.9 | 0.00 | 0.00 | 0.00 | 88 | 1014.6 |
| 20260830230001 | 59 | 315 | 0.0 | 0.0 | 0.00 | 0.00 | 0.00 | 88 | 1014.7 |
| 20260830225501 | 59 | 224 | 0.9 | 0.9 | 0.00 | 0.00 | 0.00 | 88 | 1014.7 |
| 20260830225000 | 59 | 142 | 0.0 | 0.0 | 0.00 | 0.00 | 0.00 | 88 | 1014.6 |
| 20260830224501 | 59 | 135 | 0.0 | 0.0 | 0.00 | 0.00 | 0.00 | 88 | 1014.5 |
| 20260830224000 | 59 | 135 | 0.0 | 0.0 | 0.00 | 0.00 | 0.00 | 88 | 1014.6 |
| 20260830223501 | 59 | 154 | 0.0 | 0.0 | 0.00 | 0.00 | 0.00 | 88 | 1014.6 |
| 20260830223000 | 59 | 242 | 0.0 | 0.0 | 0.00 | 0.00 | 0.00 | 87 | 1014.6 |
| 20260830222501 | 59 | 246 | 0.0 | 0.0 | 0.00 | 0.00 | 0.00 | 87 | 1014.6 |
| 20260830222000 | 59 | 246 | 0.0 | 0.0 | 0.00 | 0.00 | 0.00 | 86 | 1014.7 |
| 20260830221500 | 60 | 246 | 0.0 | 0.0 | 0.00 | 0.00 | 0.00 | 86 | 1014.6 |
| 20260830221001 | 60 | 224 | 0.0 | 0.0 | 0.00 | 0.00 | 0.00 | 87 | 1014.6 |
| 20260830220500 | 60 | 141 | 0.0 | 0.9 | 0.00 | 0.00 | 0.00 | 87 | 1014.6 |
| 20260830220001 | 60 | 304 | 0.0 | 0.0 | 0.00 | 0.00 | 0.00 | 87 | 1014.6 |
| 20260830215501 | 60 | 304 | 0.0 | 0.0 | 0.00 | 0.00 | 0.00 | 86 | 1014.7 |
| 20260830215001 | 60 | 304 | 0.0 | 0.9 | 0.00 | 0.00 | 0.00 | 86 | 1014.6 |
| 20260830214501 | 60 | 129 | 0.0 | 0.0 | 0.00 | 0.00 | 0.00 | 86 | 1014.6 |
| 20260830214000 | 60 | 315 | 0.0 | 0.0 | 0.00 | 0.00 | 0.00 | 85 | 1014.6 |
| 20260830213501 | 60 | 315 | 0.0 | 0.0 | 0.00 | 0.00 | 0.00 | 85 | 1014.6 |
| 20260830213001 | 60 | 315 | 0.0 | 0.9 | 0.00 | 0.00 | 0.00 | 85 | 1014.6 |
| 20260830212500 | 60 | 315 | 0.0 | 0.0 | 0.00 | 0.00 | 0.00 | 84 | 1014.6 |
| 20260830212001 | 60 | 180 | 0.0 | 0.0 | 0.00 | 0.00 | 0.00 | 85 | 1014.7 |
| 20260830211501 | 60 | 180 | 0.0 | 0.0 | 0.00 | 0.00 | 0.00 | 84 | 1014.6 |
| 20260830211001 | 60 | 224 | 0.0 | 0.0 | 0.00 | 0.00 | 0.00 | 84 | 1014.7 |
| 20260830210501 | 61 | 135 | 0.0 | 0.0 | 0.00 | 0.00 | 0.00 | 83 | 1014.6 |
| 20260830210000 | 61 | 135 | 0.0 | 0.0 | 0.00 | 0.00 | 0.00 | 83 | 1014.7 |
| 20260830205501 | 61 | 135 | 0.0 | 0.0 | 0.00 | 0.00 | 0.00 | 83 | 1014.7 |
| 20260830205000 | 61 | 135 | 0.0 | 0.0 | 0.00 | 0.00 | 0.00 | 82 | 1014.6 |
| 20260830204500 | 61 | 224 | 0.0 | 0.0 | 0.00 | 0.00 | 0.00 | 82 | 1014.7 |
| 20260830204001 | 62 | 3 | 0.0 | 0.0 | 0.00 | 0.00 | 0.00 | 82 | 1014.7 |
| 20260830203501 | 62 | 224 | 0.0 | 0.0 | 0.00 | 0.00 | 0.00 | 82 | 1014.7 |
| 20260830203001 | 62 | 315 | 0.0 | 0.0 | 0.00 | 0.00 | 0.00 | 81 | 1014.7 |
| 20260830202501 | 62 | 304 | 0.0 | 0.0 | 0.00 | 0.00 | 0.00 | 81 | 1014.6 |
| 20260830202001 | 62 | 304 | 0.0 | 0.0 | 0.00 | 0.00 | 0.00 | 80 | 1014.6 |
| 20260830201501 | 62 | 304 | 0.0 | 0.0 | 0.00 | 0.00 | 0.00 | 80 | 1014.6 |
| 20260830201001 | 63 | 304 | 0.0 | 0.0 | 0.00 | 0.00 | 0.00 | 79 | 1014.6 |
| 20260830200501 | 63 | 135 | 0.0 | 0.0 | 0.00 | 0.00 | 0.00 | 79 | 1014.6 |
| 20260830200001 | 63 | 135 | 0.0 | 0.0 | 0.00 | 0.00 | 0.00 | 79 | 1014.6 |
| 20260830195501 | 63 | 217 | 0.0 | 0.0 | 0.00 | 0.00 | 0.00 | 79 | 1014.6 |
| 20260830195000 | 64 | 217 | 0.0 | 0.0 | 0.00 | 0.00 | 0.00 | 77 | 1014.6 |
| 20260830194501 | 64 | 217 | 0.0 | 0.0 | 0.00 | 0.00 | 0.00 | 78 | 1014.6 |
| 20260830194000 | 64 | 217 | 0.0 | 0.0 | 0.00 | 0.00 | 0.00 | 78 | 1014.6 |
| 20260830193500 | 64 | 135 | 0.0 | 0.0 | 0.00 | 0.00 | 0.00 | 77 | 1014.6 |
| 20260830193000 | 64 | 150 | 0.0 | 0.0 | 0.00 | 0.00 | 0.00 | 76 | 1014.6 |
| 20260830192501 | 64 | 150 | 0.0 | 0.0 | 0.00 | 0.00 | 0.00 | 75 | 1014.6 |
| 20260830192001 | 65 | 135 | 0.0 | 0.0 | 0.00 | 0.00 | 0.00 | 76 | 1014.5 |
| 20260830191501 | 65 | 135 | 0.0 | 0.0 | 0.00 | 0.00 | 0.00 | 75 | 1014.5 |
| 20260830191000 | 65 | 354 | 0.0 | 0.0 | 0.00 | 0.00 | 0.00 | 73 | 1014.5 |
| 20260830190501 | 65 | 354 | 0.0 | 0.0 | 0.00 | 0.00 | 0.00 | 74 | 1014.5 |
| 20260830190000 | 66 | 354 | 0.0 | 0.9 | 0.00 | 0.00 | 0.00 | 74 | 1014.4 |
| 20260830185500 | 66 | 147 | 0.0 | 0.0 | 0.00 | 0.00 | 0.00 | 72 | 1014.4 |
| 20260830185001 | 66 | 147 | 0.0 | 0.0 | 0.00 | 0.00 | 0.00 | 73 | 1014.3 |
| 20260830184500 | 66 | 224 | 0.0 | 0.0 | 0.00 | 0.00 | 0.00 | 71 | 1014.2 |
| 20260830184000 | 67 | 224 | 0.0 | 0.0 | 0.00 | 0.00 | 0.00 | 70 | 1014.2 |
| 20260830183501 | 67 | 322 | 0.0 | 0.0 | 0.00 | 0.00 | 0.00 | 70 | 1014.1 |
| 20260830183001 | 68 | 322 | 0.0 | 0.0 | 0.00 | 0.00 | 0.00 | 69 | 1014.0 |
| 20260830182501 | 68 | 129 | 0.0 | 0.0 | 0.00 | 0.00 | 0.00 | 69 | 1014.0 |
| 20260830182000 | 68 | 129 | 0.0 | 0.0 | 0.00 | 0.00 | 0.00 | 69 | 1014.0 |
| 20260830181501 | 69 | 242 | 0.0 | 0.0 | 0.00 | 0.00 | 0.00 | 68 | 1013.9 |
| 20260830181000 | 69 | 142 | 0.0 | 0.0 | 0.00 | 0.00 | 0.00 | 67 | 1013.9 |
| 20260830180501 | 70 | 142 | 0.0 | 0.0 | 0.00 | 0.00 | 0.00 | 66 | 1013.8 |
| 20260830180001 | 70 | 142 | 0.0 | 0.0 | 0.00 | 0.00 | 0.00 | 66 | 1013.8 |
| 20260830175500 | 71 | 326 | 0.0 | 0.0 | 0.00 | 0.00 | 0.00 | 65 | 1013.7 |
| 20260830175001 | 71 | 326 | 0.0 | 0.0 | 0.00 | 0.00 | 0.00 | 64 | 1013.7 |
| 20260830174501 | 72 | 315 | 0.0 | 0.0 | 0.00 | 0.00 | 0.00 | 62 | 1013.6 |
| 20260830174001 | 72 | 309 | 0.0 | 0.0 | 0.00 | 0.00 | 0.00 | 60 | 1013.5 |
| 20260830173500 | 73 | 135 | 0.0 | 0.0 | 0.00 | 0.00 | 0.00 | 59 | 1013.4 |
| 20260830173001 | 73 | 217 | 0.0 | 0.0 | 0.00 | 0.00 | 0.00 | 59 | 1013.4 |
| 20260830172501 | 74 | 224 | 0.0 | 0.9 | 0.00 | 0.00 | 0.00 | 57 | 1013.4 |
| 20260830172001 | 74 | 15 | 1.7 | 2.6 | 0.00 | 0.00 | 0.00 | 55 | 1013.3 |
| 20260830171501 | 75 | 12 | 1.7 | 4.3 | 0.00 | 0.00 | 0.00 | 54 | 1013.2 |
| 20260830171000 | 75 | 297 | 1.7 | 4.3 | 0.00 | 0.00 | 0.00 | 52 | 1013.1 |
| 20260830170501 | 75 | 333 | 1.7 | 3.5 | 0.00 | 0.00 | 0.00 | 51 | 1013.2 |
| 20260830170001 | 75 | 327 | 2.6 | 4.3 | 0.00 | 0.00 | 0.00 | 50 | 1013.1 |
| 20260830165501 | 75 | 329 | 1.7 | 2.6 | 0.00 | 0.00 | 0.00 | 51 | 1013.0 |
| 20260830165001 | 75 | 336 | 2.6 | 5.2 | 0.00 | 0.00 | 0.00 | 50 | 1013.1 |
| 20260830164500 | 76 | 329 | 1.7 | 4.3 | 0.00 | 0.00 | 0.00 | 50 | 1013.0 |
| 20260830164001 | 76 | 326 | 2.6 | 4.3 | 0.00 | 0.00 | 0.00 | 49 | 1013.0 |
| 20260830163500 | 76 | 333 | 2.6 | 5.2 | 0.00 | 0.00 | 0.00 | 49 | 1013.0 |
| 20260830163001 | 76 | 296 | 2.6 | 5.2 | 0.00 | 0.00 | 0.00 | 49 | 1013.0 |
| 20260830162501 | 77 | 310 | 3.5 | 7.0 | 0.00 | 0.00 | 0.00 | 50 | 1013.0 |
| 20260830162001 | 77 | 296 | 2.6 | 4.3 | 0.00 | 0.00 | 0.00 | 50 | 1013.0 |
| 20260830161501 | 77 | 343 | 4.3 | 7.8 | 0.00 | 0.00 | 0.00 | 49 | 1012.9 |
| 20260830161001 | 77 | 315 | 2.6 | 6.1 | 0.00 | 0.00 | 0.00 | 49 | 1012.9 |
| 20260830160500 | 77 | 319 | 1.7 | 3.5 | 0.00 | 0.00 | 0.00 | 48 | 1012.8 |
| 20260830160001 | 77 | 351 | 1.7 | 3.5 | 0.00 | 0.00 | 0.00 | 48 | 1012.7 |
| 20260830155501 | 78 | 321 | 3.5 | 6.1 | 0.00 | 0.00 | 0.00 | 47 | 1012.8 |
| 20260830155001 | 78 | 332 | 2.6 | 4.3 | 0.00 | 0.00 | 0.00 | 48 | 1012.8 |
| 20260830154500 | 78 | 330 | 1.7 | 3.5 | 0.00 | 0.00 | 0.00 | 47 | 1012.8 |
| 20260830154001 | 78 | 309 | 2.6 | 3.5 | 0.00 | 0.00 | 0.00 | 47 | 1012.8 |
| 20260830153501 | 78 | 291 | 2.6 | 4.3 | 0.00 | 0.00 | 0.00 | 47 | 1012.8 |
| 20260830153001 | 78 | 328 | 1.7 | 4.3 | 0.00 | 0.00 | 0.00 | 46 | 1012.8 |
| 20260830152501 | 78 | 285 | 2.6 | 4.3 | 0.00 | 0.00 | 0.00 | 45 | 1012.8 |
| 20260830152001 | 79 | 341 | 2.6 | 5.2 | 0.00 | 0.00 | 0.00 | 44 | 1012.8 |
| 20260830151501 | 79 | 268 | 1.7 | 4.3 | 0.00 | 0.00 | 0.00 | 43 | 1012.8 |
| 20260830151000 | 79 | 325 | 2.6 | 5.2 | 0.00 | 0.00 | 0.00 | 42 | 1012.8 |
| 20260830150501 | 79 | 321 | 2.6 | 7.8 | 0.00 | 0.00 | 0.00 | 42 | 1012.8 |
| 20260830150001 | 79 | 341 | 2.6 | 5.2 | 0.00 | 0.00 | 0.00 | 42 | 1012.8 |
| 20260830145501 | 79 | 325 | 2.6 | 6.1 | 0.00 | 0.00 | 0.00 | 43 | 1012.8 |
| 20260830145000 | 78 | 264 | 2.6 | 6.1 | 0.00 | 0.00 | 0.00 | 43 | 1012.8 |
| 20260830144502 | 79 | 344 | 2.6 | 6.1 | 0.00 | 0.00 | 0.00 | 43 | 1012.8 |
| 20260830144001 | 79 | 316 | 2.6 | 7.8 | 0.00 | 0.00 | 0.00 | 42 | 1012.8 |
| 20260830143501 | 80 | 273 | 2.6 | 5.2 | 0.00 | 0.00 | 0.00 | 42 | 1012.7 |
| 20260830143001 | 80 | 311 | 3.5 | 7.8 | 0.00 | 0.00 | 0.00 | 42 | 1012.7 |
| 20260830142501 | 79 | 324 | 2.6 | 6.1 | 0.00 | 0.00 | 0.00 | 43 | 1012.8 |
| 20260830142001 | 79 | 348 | 2.6 | 6.1 | 0.00 | 0.00 | 0.00 | 42 | 1012.9 |
| 20260830141501 | 80 | 319 | 2.6 | 6.1 | 0.00 | 0.00 | 0.00 | 41 | 1012.7 |
| 20260830141001 | 80 | 1 | 3.5 | 7.0 | 0.00 | 0.00 | 0.00 | 41 | 1012.7 |
| 20260830140501 | 80 | 310 | 3.5 | 10.4 | 0.00 | 0.00 | 0.00 | 41 | 1012.7 |
| 20260830140001 | 80 | 282 | 2.6 | 6.1 | 0.00 | 0.00 | 0.00 | 41 | 1012.7 |
| 20260830135501 | 80 | 298 | 4.3 | 7.8 | 0.00 | 0.00 | 0.00 | 41 | 1012.8 |
| 20260830135001 | 80 | 307 | 2.6 | 7.0 | 0.00 | 0.00 | 0.00 | 41 | 1012.7 |
| 20260830134501 | 80 | 275 | 2.6 | 7.8 | 0.00 | 0.00 | 0.00 | 42 | 1012.8 |
| 20260830134001 | 79 | 322 | 3.5 | 7.8 | 0.00 | 0.00 | 0.00 | 42 | 1012.8 |
| 20260830133501 | 80 | 301 | 3.5 | 10.4 | 0.00 | 0.00 | 0.00 | 42 | 1012.8 |
| 20260830133001 | 81 | 291 | 2.6 | 6.1 | 0.00 | 0.00 | 0.00 | 41 | 1012.7 |
| 20260830132501 | 81 | 199 | 2.6 | 7.0 | 0.00 | 0.00 | 0.00 | 41 | 1012.6 |
| 20260830132001 | 80 | 185 | 2.6 | 5.2 | 0.00 | 0.00 | 0.00 | 44 | 1012.7 |
| 20260830131501 | 79 | 314 | 2.6 | 6.1 | 0.00 | 0.00 | 0.00 | 49 | 1012.8 |
| 20260830131000 | 78 | 324 | 3.5 | 7.0 | 0.00 | 0.00 | 0.00 | 52 | 1012.8 |
| 20260830130501 | 78 | 322 | 1.7 | 5.2 | 0.00 | 0.00 | 0.00 | 53 | 1012.8 |
| 20260830130001 | 78 | 315 | 1.7 | 6.1 | 0.00 | 0.00 | 0.00 | 53 | 1012.9 |
| 20260830125501 | 77 | 308 | 2.6 | 6.1 | 0.00 | 0.00 | 0.00 | 54 | 1012.9 |
| 20260830125001 | 77 | 343 | 2.6 | 7.0 | 0.00 | 0.00 | 0.00 | 54 | 1013.0 |
| 20260830124501 | 77 | 24 | 2.6 | 4.3 | 0.00 | 0.00 | 0.00 | 54 | 1013.0 |
| 20260830124001 | 78 | 316 | 1.7 | 4.3 | 0.00 | 0.00 | 0.00 | 54 | 1013.0 |
| 20260830123501 | 78 | 322 | 1.7 | 2.6 | 0.00 | 0.00 | 0.00 | 56 | 1013.1 |
| 20260830123001 | 77 | 324 | 1.7 | 3.5 | 0.00 | 0.00 | 0.00 | 58 | 1013.2 |
| 20260830122501 | 76 | 32 | 1.7 | 3.5 | 0.00 | 0.00 | 0.00 | 58 | 1013.2 |
| 20260830122001 | 75 | 312 | 2.6 | 6.1 | 0.00 | 0.00 | 0.00 | 59 | 1013.3 |
| 20260830121501 | 76 | 340 | 2.6 | 5.2 | 0.00 | 0.00 | 0.00 | 59 | 1013.3 |
| 20260830121001 | 75 | 326 | 3.5 | 7.8 | 0.00 | 0.00 | 0.00 | 60 | 1013.2 |
| 20260830120501 | 74 | 308 | 2.6 | 4.3 | 0.00 | 0.00 | 0.00 | 63 | 1013.4 |
| 20260830120000 | 73 | 341 | 2.6 | 6.1 | 0.00 | 0.00 | 0.00 | 63 | 1013.3 |
| 20260830115500 | 74 | 289 | 1.7 | 5.2 | 0.00 | 0.00 | 0.00 | 63 | 1013.4 |
| 20260830115000 | 74 | 332 | 2.6 | 7.8 | 0.00 | 0.00 | 0.00 | 62 | 1013.4 |
| 20260830114500 | 74 | 353 | 2.6 | 4.3 | 0.00 | 0.00 | 0.00 | 62 | 1013.4 |
| 20260830114001 | 74 | 331 | 2.6 | 7.8 | 0.00 | 0.00 | 0.00 | 63 | 1013.4 |
| 20260830113501 | 74 | 310 | 3.5 | 6.1 | 0.00 | 0.00 | 0.00 | 63 | 1013.4 |
| 20260830113001 | 74 | 319 | 3.5 | 6.1 | 0.00 | 0.00 | 0.00 | 61 | 1013.3 |
| 20260830112500 | 75 | 190 | 2.6 | 7.8 | 0.00 | 0.00 | 0.00 | 59 | 1013.3 |
| 20260830112001 | 77 | 297 | 3.5 | 7.0 | 0.00 | 0.00 | 0.00 | 54 | 1013.2 |
| 20260830111500 | 77 | 180 | 1.7 | 6.1 | 0.00 | 0.00 | 0.00 | 52 | 1013.1 |
| 20260830111001 | 77 | 300 | 2.6 | 6.1 | 0.00 | 0.00 | 0.00 | 53 | 1013.1 |
| 20260830110500 | 77 | 327 | 3.5 | 9.6 | 0.00 | 0.00 | 0.00 | 53 | 1013.1 |
| 20260830110001 | 77 | 341 | 3.5 | 10.4 | 0.00 | 0.00 | 0.00 | 53 | 1013.1 |
| 20260830105501 | 76 | 167 | 3.5 | 7.0 | 0.00 | 0.00 | 0.00 | 54 | 1013.1 |
| 20260830105001 | 76 | 253 | 2.6 | 7.8 | 0.00 | 0.00 | 0.00 | 54 | 1013.0 |
| 20260830104501 | 76 | 344 | 2.6 | 7.8 | 0.00 | 0.00 | 0.00 | 55 | 1013.1 |
| 20260830104001 | 75 | 345 | 3.5 | 12.2 | 0.00 | 0.00 | 0.00 | 55 | 1013.1 |
| 20260830103501 | 75 | 345 | 2.6 | 8.7 | 0.00 | 0.00 | 0.00 | 55 | 1013.1 |
| 20260830103000 | 75 | 305 | 3.5 | 9.6 | 0.00 | 0.00 | 0.00 | 54 | 1013.1 |
| 20260830102501 | 75 | 349 | 3.5 | 9.6 | 0.00 | 0.00 | 0.00 | 54 | 1013.1 |
| 20260830102001 | 75 | 233 | 3.5 | 9.6 | 0.00 | 0.00 | 0.00 | 54 | 1013.2 |
| 20260830101501 | 76 | 290 | 4.3 | 12.2 | 0.00 | 0.00 | 0.00 | 53 | 1013.1 |
| 20260830101001 | 76 | 286 | 2.6 | 7.0 | 0.00 | 0.00 | 0.00 | 54 | 1013.2 |
| 20260830100501 | 76 | 173 | 3.5 | 10.4 | 0.00 | 0.00 | 0.00 | 54 | 1013.2 |
| 20260830100000 | 75 | 196 | 3.5 | 10.4 | 0.00 | 0.00 | 0.00 | 54 | 1013.2 |
| 20260830095500 | 75 | 209 | 4.3 | 9.6 | 0.00 | 0.00 | 0.00 | 53 | 1013.1 |
| 20260830095001 | 76 | 68 | 3.5 | 11.3 | 0.00 | 0.00 | 0.00 | 52 | 1013.2 |
| 20260830094501 | 76 | 137 | 4.3 | 12.2 | 0.00 | 0.00 | 0.00 | 53 | 1013.1 |
| 20260830094001 | 76 | 40 | 2.6 | 10.4 | 0.00 | 0.00 | 0.00 | 53 | 1013.1 |
| 20260830093501 | 76 | 203 | 2.6 | 7.8 | 0.00 | 0.00 | 0.00 | 53 | 1013.1 |
| 20260830093001 | 76 | 327 | 4.3 | 12.2 | 0.00 | 0.00 | 0.00 | 52 | 1013.2 |
| 20260830092501 | 77 | 163 | 3.5 | 8.7 | 0.00 | 0.00 | 0.00 | 52 | 1013.1 |
| 20260830092001 | 77 | 313 | 3.5 | 9.6 | 0.00 | 0.00 | 0.00 | 52 | 1013.1 |
| 20260830091501 | 76 | 186 | 3.5 | 8.7 | 0.00 | 0.00 | 0.00 | 53 | 1013.1 |
| 20260830091000 | 76 | 170 | 3.5 | 10.4 | 0.00 | 0.00 | 0.00 | 53 | 1013.0 |
| 20260830090501 | 76 | 208 | 3.5 | 8.7 | 0.00 | 0.00 | 0.00 | 54 | 1013.0 |
| 20260830090000 | 76 | 211 | 3.5 | 12.2 | 0.00 | 0.00 | 0.00 | 54 | 1013.0 |
| 20260830085501 | 75 | 300 | 3.5 | 8.7 | 0.00 | 0.00 | 0.00 | 56 | 1013.0 |
| 20260830085000 | 75 | 178 | 3.5 | 13.0 | 0.00 | 0.00 | 0.00 | 56 | 1013.0 |
| 20260830084501 | 75 | 226 | 2.6 | 7.0 | 0.00 | 0.00 | 0.00 | 56 | 1013.0 |
| 20260830084001 | 75 | 283 | 4.3 | 8.7 | 0.00 | 0.00 | 0.00 | 56 | 1013.0 |
| 20260830083500 | 75 | 341 | 4.3 | 11.3 | 0.00 | 0.00 | 0.00 | 56 | 1013.0 |
| 20260830083001 | 75 | 307 | 2.6 | 6.1 | 0.00 | 0.00 | 0.00 | 56 | 1013.0 |
| 20260830082500 | 75 | 240 | 3.5 | 9.6 | 0.00 | 0.00 | 0.00 | 56 | 1012.9 |
| 20260830082000 | 74 | 286 | 3.5 | 13.0 | 0.00 | 0.00 | 0.00 | 56 | 1013.0 |
| 20260830081500 | 74 | 272 | 5.2 | 13.0 | 0.00 | 0.00 | 0.00 | 56 | 1012.9 |
| 20260830081001 | 74 | 261 | 4.3 | 12.2 | 0.00 | 0.00 | 0.00 | 57 | 1013.0 |
| 20260830080501 | 74 | 196 | 5.2 | 10.4 | 0.00 | 0.00 | 0.00 | 57 | 1013.0 |
| 20260830080001 | 74 | 351 | 2.6 | 7.8 | 0.00 | 0.00 | 0.00 | 58 | 1013.0 |
| 20260830075500 | 74 | 335 | 3.5 | 9.6 | 0.00 | 0.00 | 0.00 | 58 | 1012.9 |
| 20260830075000 | 73 | 296 | 1.7 | 6.1 | 0.00 | 0.00 | 0.00 | 59 | 1013.0 |
| 20260830074501 | 73 | 158 | 4.3 | 10.4 | 0.00 | 0.00 | 0.00 | 59 | 1013.0 |
| 20260830074001 | 73 | 163 | 3.5 | 9.6 | 0.00 | 0.00 | 0.00 | 59 | 1012.9 |
| 20260830073500 | 73 | 207 | 2.6 | 7.8 | 0.00 | 0.00 | 0.00 | 60 | 1012.9 |
| 20260830073001 | 73 | 179 | 3.5 | 10.4 | 0.00 | 0.00 | 0.00 | 61 | 1012.9 |
| 20260830072500 | 73 | 135 | 3.5 | 12.2 | 0.00 | 0.00 | 0.00 | 61 | 1012.8 |
| 20260830072000 | 73 | 187 | 3.5 | 14.8 | 0.00 | 0.00 | 0.00 | 62 | 1012.8 |
| 20260830071500 | 73 | 184 | 4.3 | 11.3 | 0.00 | 0.00 | 0.00 | 62 | 1012.8 |
| 20260830071000 | 72 | 323 | 2.6 | 8.7 | 0.00 | 0.00 | 0.00 | 63 | 1012.7 |
| 20260830070501 | 72 | 175 | 2.6 | 7.0 | 0.00 | 0.00 | 0.00 | 63 | 1012.7 |
| 20260830070001 | 72 | 26 | 2.6 | 9.6 | 0.00 | 0.00 | 0.00 | 63 | 1012.6 |
| 20260830065501 | 71 | 200 | 3.5 | 7.8 | 0.00 | 0.00 | 0.00 | 64 | 1012.5 |
| 20260830065001 | 71 | 186 | 4.3 | 11.3 | 0.00 | 0.00 | 0.00 | 63 | 1012.5 |
| 20260830064500 | 71 | 223 | 3.5 | 8.7 | 0.00 | 0.00 | 0.00 | 64 | 1012.5 |